Flag for Germany Weather past 2 weeks in Neunkirchen (Saar), Saarland, Germany

Now
48 °F

Partly sunny.


Feels Like: 42 °F
Forecast: 37 / 48 °F
Wind: 17 mph from West

Location: Saarbruecken / Ensheim

Current Time: Oct 21, 2014 at 7:00:13 PM

Latest Report: Oct 21, 2014 at 6:20 PM


Visibility: N/A

Pressure: 29.68 "Hg

Humidity: 87%

Dew point: 45 °F

Location of Neunkirchen (Saar)Location

Historic Weather in Neunkirchen (Saar) — Graph

°F

Neunkirchen (Saar) temperature yesterday

Maximum temperature yesterday: 64 °F (at 2:50 PM)
Minimum temperature yesterday: 54 °F (at 10:50 PM)
Average temperature yesterday: 60 °F

Past Weeks' High & Low Weather Summary

 TemperatureHumidityPressure
High72 °F (Oct 18, 2:50 PM)100% (Oct 7, 4:50 AM)30.18 "Hg (Oct 7, 4:50 AM)
Low45 °F (Oct 12, 5:50 AM)53% (Oct 18, 3:20 PM)29.65 "Hg (Oct 7, 6:50 AM)
Average57 °F88%29.90 "Hg
* Reported Oct 6 5:20 PM — Oct 21 5:50 PM, Neunkirchen (Saar), Weather by CustomWeather, © 2014

Note: Actual official high and low records may vary slightly from our data, if they occured in-between our weather recording intervals... More about our weather records

Advertising

Neunkirchen (Saar) weather history for previous 24 hours

 ConditionsComfort  
Time TempWeatherWind HumidityBarometerVisibility
5:50 PM
Oct 21
50 °FSprinkles. Partly sunny.30 mph82%29.68 "HgN/A
5:20 PM55 °FSprinkles. Partly sunny.16 mph94%29.65 "HgN/A
4:50 PM55 °FBroken clouds.15 mph94%29.65 "HgN/A
4:20 PM54 °FSprinkles. Broken clouds.16 mph94%29.68 "HgN/A
3:50 PM54 °FLight rain. Partly sunny.18 mph94%29.71 "Hg4 mi
3:20 PM55 °FBroken clouds.18 mph88%29.74 "HgN/A
2:50 PM54 °FLight rain. Broken clouds.17 mph88%29.77 "Hg6 mi
2:20 PM54 °FLight rain. Broken clouds.21 mph82%29.77 "Hg4 mi
1:50 PM55 °FPartly sunny.16 mph72%29.80 "HgN/A
1:20 PM55 °FScattered clouds.21 mph72%29.83 "HgN/A
12:50 PM55 °FScattered clouds.22 mph77%29.86 "HgN/A
12:20 PM55 °FScattered clouds.21 mph77%29.86 "HgN/A
11:50 AM55 °FScattered clouds.15 mph82%29.89 "HgN/A
11:20 AM54 °FScattered clouds.18 mph88%29.89 "HgN/A
10:50 AM54 °FPartly sunny.16 mph88%29.89 "HgN/A
10:20 AM54 °FPartly sunny.15 mph88%29.89 "HgN/A
9:50 AM52 °FScattered clouds.13 mph94%29.92 "HgN/A
9:20 AM52 °FScattered clouds.14 mph94%29.92 "Hg4 mi
8:50 AM52 °FPassing clouds.9 mph94%29.92 "Hg4 mi
8:20 AM52 °FPassing clouds.7 mph94%29.92 "Hg4 mi
7:50 AM50 °FFog.9 mph100%29.95 "Hg3 mi
7:20 AM52 °FCool.12 mph94%29.92 "Hg3 mi
6:50 AM50 °FCool.7 mph100%29.95 "Hg3 mi
6:20 AM50 °FCool.7 mph100%29.95 "Hg2 mi
5:50 AM50 °FFog.7 mph94%29.95 "Hg1 mi
5:20 AM50 °FFog.7 mph94%29.98 "Hg2 mi
4:50 AM50 °FFog.8 mph94%29.98 "Hg1 mi
4:20 AM50 °FPassing clouds.7 mph94%29.98 "HgN/A
3:50 AM50 °FPassing clouds.5 mph94%29.98 "HgN/A
3:20 AM52 °FPassing clouds.5 mph94%30.01 "HgN/A
2:50 AM52 °FPassing clouds.7 mph94%30.01 "Hg6 mi
2:20 AM52 °FPassing clouds.6 mph94%30.01 "Hg6 mi
1:50 AM52 °FPassing clouds.6 mph94%30.01 "HgN/A
1:20 AM52 °FPassing clouds.6 mph94%30.01 "HgN/A
12:50 AM52 °FPassing clouds.6 mph94%30.04 "HgN/A
12:20 AM52 °FPassing clouds.9 mph100%30.04 "HgN/A
11:50 PM
Oct 20
54 °FPassing clouds.7 mph88%30.04 "HgN/A
11:20 PM54 °FPassing clouds.6 mph94%30.04 "HgN/A
10:50 PM54 °FPassing clouds.7 mph94%30.04 "HgN/A
10:20 PM55 °FPassing clouds.8 mph94%30.04 "HgN/A
9:50 PM55 °FMostly cloudy.7 mph94%30.04 "HgN/A
9:20 PM57 °FMostly cloudy.12 mph88%30.04 "HgN/A
8:50 PM57 °FLight rain. Low clouds.7 mph94%30.04 "HgN/A
8:20 PM57 °FLight rain. Low clouds.7 mph94%30.04 "HgN/A
7:50 PM57 °FLight rain. Mostly cloudy.8 mph88%30.04 "HgN/A
7:20 PM57 °FMore clouds than sun.9 mph88%30.07 "HgN/A
Weather by CustomWeather, © 2014

See weather overviewHow to use our weather pages